Location: Rounton
(54.4000°N, 1.3500°W)
Time: 22:16:43
(UTC+00:00)

Vanguard 1 - Pass Details

Date: 30 November 2021
Orbit: 652 x 3830 km, 34.2° (Epoch: 16 January)

Event Time Altitude Azimuth Distance (km) Brightness Sun altitude
Rises 01:28:40 0° 229° (SW) 7,834 - -52.7°
Reaches altitude 10° 01:34:37 10° 223° (SW) 6,917 - -52.2°
Maximum altitude 01:54:03 36° 167° (SSE) 4,653 - -50.2°
Exits shadow 01:57:45 34° 149° (SSE) 4,562 13.2 -49.8°
Drops below altitude 10° 02:09:00 10° 109° (ESE) 5,390 14.0 -48.6°
Sets 02:12:53 0° 101° (ESE) 6,010 14.5 -48.1°
